EHI
0 0 0 0 0 0 0 0 0 0 0 0 0 0 0 0 0 0 0 0 1 5 15 26 30 30 30 33 37 41 42 42 41 40 39 37 32 26 24 23 22 21 18 16 14 11 7 3 1
0 0 0 0 0 0 0 0 0 0 0 0 0 0 0 0 0 0 0 0 1 5 14 24 29 29 29 32 35 37 37 37 37 38 38 36 30 24 23 23 22 21 18 15 13 10 6 2 0
0 0 0 0 0 0 0 0 0 0 0 0 0 0 0 0 0 0 0 0 2 5 12 22 27 27 28 30 32 32 31 30 32 35 37 34 28 23 21 22 21 20 19 15 10 7 4 1 0
0 0 0 0 0 0 0 0 0 0 0 0 0 0 0 0 0 0 0 0 1 4 10 18 25 27 27 29 29 28 27 26 28 31 34 32 27 22 20 20 20 19 18 14 8 4 2 0 0
0 0 0 0 0 0 0 0 0 0 0 0 0 0 0 0 0 0 0 0 1 4 8 15 23 27 29 28 25 24 24 24 25 27 30 29 27 22 19 19 19 17 15 12 7 3 1 0 0
0 0 0 0 0 0 0 0 0 0 0 0 0 0 0 0 0 0 0 0 1 3 6 12 20 26 29 27 22 21 21 21 21 23 25 26 26 22 18 17 17 14 11 10 7 3 0 0 0
0 0 0 0 0 0 0 0 0 0 0 0 0 0 0 0 0 0 0 0 1 3 6 9 16 23 26 24 20 18 16 16 17 19 20 21 22 20 16 13 12 11 9 8 7 4 1 0 0
0 0 0 0 0 0 0 0 0 0 0 0 0 0 0 0 0 0 0 0 1 3 5 8 13 18 21 20 18 15 11 11 13 14 13 14 14 14 12 10 9 8 7 6 6 4 2 0 0
0 0 0 0 0 0 0 0 0 0 0 0 0 0 0 0 0 0 0 1 1 2 5 8 11 15 17 17 16 12 8 8 9 9 7 6 6 6 6 5 6 7 6 4 4 3 1 0 0
0 0 0 0 0 0 0 0 0 0 0 0 0 0 0 0 0 0 0 0 0 1 3 6 9 12 15 15 13 9 7 7 8 6 4 3 3 3 3 2 2 4 4 3 2 1 0 0 0
0 0 0 0 0 0 0 0 0 0 0 0 0 0 0 0 0 0 0 0 0 0 1 4 7 10 13 13 10 7 6 7 7 6 4 3 3 3 2 1 0 1 1 1 1 0 0 0 0
0 0 0 0 0 0 0 0 0 0 0 0 0 0 0 0 0 0 0 0 0 0 1 3 6 9 11 11 7 5 5 6 7 6 4 3 3 3 2 1 0 0 0 0 0 0 0 0 0
0 0 0 0 0 0 0 0 0 0 0 0 0 0 0 0 0 0 0 0 0 0 1 3 5 7 8 7 5 5 5 6 7 6 4 3 3 3 2 1 0 0 0 0 0 0 0 0 0
0 0 0 0 0 0 0 0 0 0 0 0 0 0 0 0 0 0 0 0 0 0 1 2 4 6 5 4 3 5 6 6 6 5 4 3 3 2 1 0 0 0 0 0 0 0 0 0 0
0 0 0 0 0 0 0 0 0 0 0 0 0 0 0 0 0 0 0 0 0 0 0 1 3 4 3 1 2 5 6 6 6 4 3 3 2 1 0 0 0 0 0 0 0 0 0 0 0
0 0 0 0 0 0 0 0 0 0 0 0 0 0 0 0 0 0 0 0 0 0 0 1 2 2 1 0 1 4 6 6 5 4 3 3 1 0 0 0 0 0 0 0 0 0 0 0 0
0 0 0 0 0 0 0 0 0 0 0 0 0 0 0 0 0 0 0 0 0 0 0 1 1 1 0 0 0 2 4 4 4 3 3 2 1 0 0 0 0 0 0 0 0 0 0 0 0
0 0 0 0 0 0 0 0 0 0 0 0 0 0 0 0 0 0 0 0 0 0 0 0 0 0 0 0 0 0 2 3 3 3 2 1 0 0 0 0 0 0 0 0 0 0 0 0 0
0 0 0 0 0 0 0 0 0 0 0 0 0 0 0 0 0 0 0 0 0 0 0 0 0 0 0 0 0 0 1 2 3 3 1 0 0 0 0 0 0 0 0 0 0 0 0 0 0
0 0 0 0 0 0 0 0 0 0 0 0 0 0 0 0 0 0 0 0 0 0 0 0 0 0 0 0 0 0 1 2 3 2 1 0 0 0 0 0 0 0 0 0 0 0 0 0 0
0 0 0 0 0 0 0 0 0 0 0 0 0 0 0 0 0 0 0 0 0 0 0 0 0 0 0 0 0 0 1 2 2 1 0 0 0 0 0 0 0 0 0 0 0 0 0 0 0
0 0 0 0 0 0 0 0 0 0 0 0 0 0 0 0 0 0 0 0 0 0 0 0 0 0 0 0 0 0 0 1 1 0 0 0 0 0 0 0 0 0 0 0 0 0 0 0 0
0 0 0 0 0 0 0 0 0 0 0 0 0 0 0 0 0 0 0 0 0 0 0 0 0 0 0 0 0 0 0 0 0 0 0 0 0 0 0 0 0 0 0 0 0 0 0 0 0
0 0 0 0 0 0 0 0 0 0 0 0 0 0 0 0 0 0 0 0 0 0 0 0 0 0 0 0 0 0 0 0 0 0 0 0 0 0 0 0 0 0 0 0 0 0 0 0 0
0 0 0 0 0 0 0 0 0 0 0 0 0 0 0 0 0 0 0 0 0 0 0 0 0 0 0 0 0 0 0 0 0 0 0 0 0 0 0 0 0 0 0 0 0 0 0 0 0
0 0 0 0 0 0 0 0 0 0 0 0 0 0 0 0 0 0 0 0 0 0 0 0 0 0 0 0 0 0 0 0 0 0 0 0 0 0 0 0 0 0 0 0 0 0 0 0 0
0 0 0 0 0 0 0 0 0 0 0 0 0 0 0 0 0 0 0 0 0 0 0 0 0 0 0 0 0 0 0 0 0 0 0 0 0 0 0 0 0 0 0 0 0 0 0 0 0
0 0 0 0 0 0 0 0 0 0 0 0 0 0 0 0 0 0 0 0 0 0 0 0 0 0 0 0 0 0 0 0 0 0 0 0 0 0 0 0 0 0 0 0 0 0 0 0 0
0 0 0 0 0 0 0 0 0 0 0 0 0 0 0 0 0 0 0 0 0 0 0 0 0 0 0 0 0 0 0 0 0 0 0 0 0 0 0 0 0 0 0 0 0 0 0 0 0
0 0 0 0 0 0 0 0 0 0 0 0 0 0 0 0 0 0 0 0 0 0 0 0 0 0 0 0 0 0 0 0 0 0 0 0 0 0 0 0 0 0 0 0 0 0 0 0 0
Wind_Speed
7 3 2 4 4 1 5 6 3 2 3 2 2 3 4 4 4 3 2 1 2 1 4 6 8 10 11 12 12 12 12 12 13 13 14 15 15 15 15 15 15 15 14 14 14 14 14 14 14
2 2 4 4 3 4 7 5 6 5 4 3 2 1 1 3 2 2 4 5 2 1 3 3 6 8 10 11 12 12 12 12 12 13 13 14 15 15 15 15 15 15 14 14 14 14 14 14 13
2 3 3 3 4 7 5 3 4 4 3 2 2 2 1 3 2 2 4 4 2 0 1 3 5 6 9 10 11 12 12 12 12 12 13 13 14 15 15 14 15 15 14 14 14 14 14 14 13
3 3 3 2 9 6 4 2 2 4 4 2 1 4 3 2 1 2 4 3 2 1 1 2 4 6 7 9 10 11 12 12 12 13 13 13 13 13 14 14 14 14 14 14 14 14 14 14 13
3 3 1 5 9 4 3 3 2 3 3 3 2 4 6 3 2 3 4 3 2 2 2 2 4 5 6 7 9 11 11 12 12 12 13 13 13 13 13 13 14 14 14 14 15 15 14 14 13
3 3 3 8 8 4 3 3 2 3 3 3 2 3 6 2 4 5 5 4 2 2 2 3 4 4 5 7 7 9 10 11 12 12 12 13 13 13 13 14 14 14 14 14 15 15 15 14 13
3 3 6 6 5 5 3 1 2 3 5 4 2 3 6 5 4 6 4 4 3 3 2 3 4 5 5 5 6 8 8 9 11 11 12 12 12 13 13 13 14 13 14 15 15 15 15 14 13
3 2 4 6 6 6 2 2 1 3 6 4 2 4 6 6 7 6 5 3 3 3 3 3 4 4 4 4 6 6 8 8 9 10 10 10 10 12 13 12 13 13 13 14 15 15 15 14 13
2 1 7 7 5 4 1 3 4 3 4 4 4 6 7 7 7 6 6 4 4 5 4 3 4 4 4 4 5 5 7 8 7 8 9 8 6 6 7 9 12 14 13 13 15 15 15 13 12
2 5 9 4 3 3 4 5 5 5 7 6 7 8 7 7 6 6 7 7 6 7 6 4 4 4 4 4 3 4 4 5 4 4 5 4 4 4 5 8 10 12 12 12 14 15 13 9 5
2 6 4 5 4 4 6 7 5 6 11 10 10 10 7 8 8 8 9 8 8 8 7 6 5 4 4 4 3 2 3 3 4 5 5 4 4 4 4 3 5 6 7 5 7 8 5 5 4
3 6 6 6 4 5 7 6 6 10 14 11 11 10 9 10 11 10 10 10 9 8 9 6 5 5 5 5 4 3 3 4 4 5 6 5 3 4 4 3 3 3 3 4 4 4 5 6 6
4 6 7 8 10 9 10 11 10 14 15 13 11 11 11 12 12 11 10 10 10 9 9 7 6 6 5 5 4 4 4 5 5 5 5 6 5 5 5 4 4 4 4 4 5 5 6 6 6
4 6 9 10 10 8 9 13 9 15 10 8 10 11 11 11 11 9 9 10 10 9 9 6 6 6 6 5 5 4 4 5 5 5 6 7 5 6 6 5 5 5 5 5 5 5 6 6 5
3 6 9 7 6 5 5 12 11 12 6 9 11 12 12 11 10 10 10 10 10 9 8 8 7 6 6 5 6 5 5 5 5 5 7 7 7 7 6 6 6 6 5 5 5 5 4 5 5
2 3 6 6 4 4 3 15 11 7 6 11 12 12 11 11 10 10 10 10 9 8 8 8 6 6 7 6 5 4 5 5 5 5 6 8 8 8 6 6 6 6 6 5 6 5 4 5 6
2 3 7 9 4 3 5 14 12 8 8 12 12 11 11 10 9 8 8 9 9 8 8 8 6 7 7 6 4 5 5 5 5 5 6 7 8 9 7 6 6 7 6 6 6 5 5 5 6
4 5 7 9 6 6 11 18 17 10 9 11 11 10 10 10 10 7 7 8 8 7 7 7 7 8 7 4 3 3 4 4 4 5 6 8 8 9 8 6 7 8 6 6 6 7 5 4 5
5 7 12 13 9 8 14 19 19 13 8 9 9 9 9 9 8 6 6 6 5 5 7 7 7 7 6 4 4 4 5 5 4 5 7 8 8 9 8 7 7 8 8 8 8 6 6 4 4
7 10 12 11 6 9 13 18 15 9 7 7 8 9 9 8 7 6 5 4 4 5 6 7 7 7 7 6 5 4 4 4 4 5 6 8 8 9 8 9 8 9 7 9 9 7 5 4 6
8 9 9 10 11 6 8 13 8 7 5 6 7 7 7 7 7 7 5 4 4 5 6 6 7 8 7 6 3 3 2 2 3 4 5 7 8 9 9 10 9 9 9 9 10 10 9 7 5
8 7 8 9 8 7 2 10 9 6 7 7 8 8 8 7 6 6 5 5 5 6 5 5 6 6 6 6 6 6 6 5 6 5 5 6 8 9 9 9 10 10 9 9 10 10 8 9 8
7 6 7 8 6 7 4 6 12 4 7 8 8 8 7 6 5 6 5 5 5 5 5 5 5 5 5 6 8 7 7 6 4 4 5 6 7 8 9 8 10 11 9 10 10 9 9 8 8
4 4 4 1 0 6 5 5 11 5 7 7 7 7 6 6 5 6 4 4 4 4 4 4 4 4 4 5 6 7 8 7 6 6 6 6 5 6 9 9 9 10 9 10 10 10 11 9 9
2 3 5 6 3 7 2 5 12 8 6 6 7 7 7 6 5 5 5 4 3 3 4 4 4 4 4 4 6 7 8 8 9 8 7 6 5 6 8 9 9 9 9 9 9 10 11 11 11
3 4 3 4 5 6 3 8 10 6 6 5 6 6 6 6 4 5 5 4 3 3 4 3 3 4 4 4 5 6 7 6 6 7 7 7 7 7 8 9 9 10 10 9 9 9 10 10 10
3 4 4 3 4 6 8 8 11 5 6 6 5 5 6 6 5 5 5 5 4 4 4 3 3 4 4 4 3 5 6 6 6 7 7 6 6 6 8 9 9 10 10 10 10 8 10 10 10
4 4 2 2 3 6 8 7 7 7 8 8 7 6 6 6 6 5 5 5 5 4 4 4 3 4 4 3 3 4 5 6 5 5 6 7 7 6 8 9 10 10 10 10 10 8 9 10 9
3 2 3 2 3 4 7 9 5 6 7 7 6 6 6 6 5 5 5 5 5 4 3 3 3 3 3 3 4 4 4 4 4 5 6 6 6 6 7 8 9 10 11 10 10 9 10 11 10
4 5 5 4 5 5 6 12 4 4 5 4 5 5 5 5 5 4 5 5 5 5 4 3 3 3 3 3 4 4 3 3 4 4 5 5 6 6 6 6 8 9 10 11 11 11 10 11 11
Wind_Direction
346 8 57 58 61 60 236 235 219 244 247 245 235 211 199 202 188 210 286 334 356 133 174 182 178 179 178 177 172 166 163 161 159 160 159 157 156 155 154 152 150 147 144 140 136 132 131 128 125
351 28 58 69 129 218 247 227 221 226 253 302 309 275 276 269 273 311 344 324 336 146 162 179 178 179 181 181 176 172 170 167 164 161 160 161 160 161 160 158 155 150 147 143 140 136 134 132 130
16 55 93 109 191 208 224 218 227 258 285 327 328 311 242 266 314 316 311 312 349 115 180 190 181 181 185 185 180 178 176 173 170 167 163 163 166 166 164 162 158 153 150 147 144 141 140 137 135
67 54 66 192 232 226 223 253 307 316 328 341 348 306 294 275 318 293 314 348 11 312 239 211 191 188 188 187 185 182 182 179 176 173 171 170 168 168 168 165 159 156 154 152 149 146 144 141 139
60 88 159 241 243 245 253 281 310 321 317 329 342 292 284 279 326 331 346 356 354 305 266 223 218 202 198 191 189 189 187 184 181 178 176 175 174 170 167 165 162 159 159 157 154 151 148 145 142
64 88 195 239 245 254 255 274 288 288 289 304 309 278 263 286 355 338 337 331 310 274 269 235 225 220 208 201 195 193 192 190 187 185 182 180 178 176 173 166 163 165 165 163 159 156 153 150 147
116 148 221 243 258 262 249 277 226 265 277 271 255 266 276 296 321 325 320 317 310 283 262 242 215 210 212 216 205 200 193 190 190 191 190 186 183 179 177 172 169 168 170 169 164 161 157 155 152
117 127 231 242 246 255 267 314 249 248 265 266 214 234 265 290 318 329 314 300 289 274 259 244 222 210 199 207 213 210 202 197 194 191 191 190 188 184 180 176 175 174 173 173 170 165 161 159 156
82 157 231 230 229 249 304 312 297 285 263 266 241 236 261 297 318 323 312 296 277 271 254 242 229 213 203 203 209 204 202 197 194 190 189 187 188 185 182 182 179 180 178 177 175 170 164 158 157
112 214 235 232 222 264 282 270 280 292 281 272 272 273 287 293 294 288 286 279 263 262 251 232 228 219 204 204 201 198 199 191 189 187 183 182 177 181 178 182 184 183 180 179 178 173 165 151 146
195 228 258 265 255 267 279 275 260 252 263 252 259 273 280 283 282 276 269 267 261 255 255 243 223 219 209 198 197 203 197 186 185 182 178 175 171 171 170 172 181 181 178 173 174 167 154 148 145
251 257 260 269 272 268 266 273 267 239 248 254 254 263 268 268 266 262 265 270 268 258 253 247 228 214 217 204 195 197 202 190 189 187 179 172 174 175 172 173 174 170 168 159 153 156 153 153 152
251 270 271 273 280 268 266 258 262 261 260 267 268 265 260 260 261 258 259 265 270 257 251 247 233 216 215 211 196 202 206 197 192 188 185 179 179 183 180 178 178 174 169 167 162 164 163 162 161
268 283 286 280 275 270 267 271 257 261 265 273 270 266 262 258 257 260 259 261 261 257 246 242 240 225 213 219 206 202 211 199 191 190 190 185 184 187 186 183 182 180 177 175 172 172 173 170 169
288 298 297 271 264 264 284 280 241 253 279 280 274 269 267 262 256 253 253 254 254 258 244 235 242 227 214 221 215 203 209 199 196 195 192 190 189 190 191 188 187 184 176 174 170 169 173 172 171
327 314 298 284 270 254 259 273 265 264 278 279 277 272 269 266 257 252 254 253 252 254 249 236 242 229 219 219 223 210 210 208 199 195 194 194 193 191 192 194 192 182 175 174 175 171 181 182 175
2 297 278 293 265 249 240 270 280 285 276 277 280 277 273 272 268 260 259 256 251 246 245 237 239 231 221 219 223 220 211 214 203 196 196 197 195 193 193 197 193 180 178 181 184 179 181 185 180
275 275 274 277 282 266 262 269 285 288 276 278 282 280 275 268 267 270 268 264 253 245 239 235 236 230 214 210 221 227 216 214 205 202 202 197 197 196 196 196 192 183 182 186 185 182 177 184 177
252 260 272 274 276 279 267 274 283 289 283 278 281 277 272 269 269 274 272 271 264 252 244 236 231 224 204 197 205 216 214 206 205 208 206 202 199 198 200 199 191 190 191 192 184 181 175 178 160
252 268 272 283 284 282 278 277 275 271 262 264 273 276 276 282 295 292 282 270 269 256 248 250 239 224 209 206 209 225 210 204 209 209 208 208 204 200 204 199 195 196 192 190 188 177 172 176 172
256 244 257 278 311 291 295 287 270 271 266 278 283 281 276 270 275 282 280 265 274 270 255 254 245 224 214 208 207 225 202 193 206 211 213 214 209 205 206 204 199 197 193 194 194 186 179 181 185
266 245 255 281 305 295 328 294 284 275 287 289 292 290 282 279 275 275 271 268 272 269 264 260 247 226 218 205 203 207 212 219 222 217 219 221 215 210 208 207 203 200 197 196 195 193 188 179 182
248 275 269 272 261 280 250 253 283 299 286 288 290 287 281 279 277 272 262 259 263 271 269 265 254 237 228 216 207 210 218 224 220 213 216 225 221 213 208 210 207 202 199 198 195 192 191 188 183
269 313 300 314 93 269 241 225 279 262 258 284 289 295 292 284 283 279 270 272 278 288 272 258 255 255 247 229 215 216 219 216 214 220 218 222 222 217 209 207 209 202 199 198 196 195 193 193 186
48 27 351 344 338 257 244 244 258 265 267 265 282 294 298 292 284 287 291 286 284 290 285 272 253 255 256 248 233 222 222 217 214 218 219 222 224 223 212 206 209 204 200 199 195 196 197 195 190
207 156 175 255 265 288 281 247 259 273 284 283 284 288 299 304 303 297 286 282 274 281 285 280 267 262 257 252 249 233 229 224 221 221 223 222 224 221 211 207 210 209 199 197 195 198 198 196 196
173 204 203 208 273 278 268 277 294 297 309 310 309 312 305 303 305 304 306 306 295 281 276 274 268 276 270 256 253 252 241 233 230 227 226 227 226 223 210 207 210 209 199 196 193 200 199 194 196
204 171 131 172 265 276 280 270 268 299 305 313 314 310 308 313 313 312 314 315 302 283 274 273 264 265 270 280 270 274 255 238 235 231 233 231 224 220 215 210 210 205 198 196 196 198 196 193 193
170 168 176 197 215 237 279 273 241 263 285 293 297 298 303 309 305 305 309 303 301 304 288 281 285 286 290 282 278 273 274 268 248 238 238 229 217 213 217 214 207 205 200 196 196 201 189 193 193
190 193 171 199 247 228 257 274 276 265 284 290 298 307 308 303 301 305 304 307 310 304 299 295 292 292 293 289 285 283 277 279 266 257 252 227 217 213 211 212 211 209 202 196 197 196 189 192 194